Volver al catálogo

BREEZE-M DEB

TANK

ActivoHEO
NORAD 39165·DEBRIS·🇷🇺 Russia

Lanzado May 14, 2013 desde Baikonur Cosmodrome

Loading…

Próximos Pases (próximas 24 horas)

TLE

ActualizadoSource: Space-Track

Época: Sep 14, 2026, 07:28 UTC

1 39165U 13022C   26257.31134138  .00001323  00000-0  48668-3 0  9992
2 39165  49.4878 235.4930 5542613 142.7536 273.1098  4.70521439221578

Sigue BREEZE-M DEB en tiempo real con AllMySat

Download on the App Store